PBO Station Position Time Series. Reference Frame : NAM14
Format Version,1.1.1
4-character ID,MLFP
Station name,MLFP_SCGN_CS1998
Begin Date, 1999-01-08
End Date, 2023-06-26
Release Date, 2023-06-27
Reference position, 33.9184034995 North Latitude, -117.3179586035 East Longitude, 472.96952 meters elevation,
Date, North (mm), East (mm), Vertical (mm), North Std. Deviation (mm), East Std. Deviation (mm),              Vertical Std. Deviation (mm), Quality,
1999-01-08,0.00, 0.00, 0.00, 2.08, 1.94, 8.14, repro,
1999-01-09,-1.32, -0.09, -1.27, 2.17, 1.95, 8.48, repro,
1999-01-10,1.43, -1.23, -1.97, 2.22, 2.00, 8.83, repro,
1999-01-11,0.75, -1.45, 4.18, 2.22, 2.05, 9.00, repro,
1999-01-12,0.93, -1.11, 6.07, 2.14, 1.99, 8.61, repro,
1999-01-13,0.22, -1.29, 0.30, 2.28, 2.00, 8.96, repro,
1999-01-14,1.30, -1.33, 4.32, 2.30, 1.98, 8.93, repro,
1999-01-15,1.09, -0.41, 3.91, 2.19, 1.99, 8.72, repro,
1999-01-16,0.29, -0.36, -0.97, 2.12, 1.90, 8.22, repro,
1999-01-17,0.46, 0.10, -0.03, 2.14, 1.98, 8.51, repro,
1999-01-18,-3.76, 0.69, 3.71, 5.11, 4.72, 20.78, repro,
1999-01-21,-1.26, -3.43, 3.50, 2.46, 2.12, 9.69, repro,
1999-01-22,-0.07, -0.61, -4.71, 2.18, 2.07, 8.62, repro,
1999-01-23,0.59, -1.65, 9.83, 2.25, 2.01, 8.90, repro,
1999-01-24,0.61, 0.18, -1.20, 2.27, 2.01, 9.39, repro,
1999-01-25,-0.90, -0.72, 0.72, 2.32, 2.07, 9.42, repro,
1999-01-26,-0.42, 0.47, -2.31, 2.39, 2.05, 10.37, repro,
1999-01-27,0.86, 0.43, 4.05, 2.19, 1.82, 8.44, repro,
1999-01-28,-1.16, -0.58, -1.52, 2.10, 1.85, 8.31, repro,
1999-01-29,1.47, -0.68, 12.55, 2.23, 1.89, 8.76, repro,
1999-01-30,-0.15, -1.41, 5.97, 2.22, 1.96, 9.01, repro,
1999-01-31,2.56, -1.43, 3.97, 2.27, 2.11, 9.42, repro,
1999-02-01,1.87, -0.98, 4.46, 2.08, 1.82, 8.19, repro,
1999-02-02,2.71, 0.22, 6.22, 2.26, 1.93, 8.96, repro,
1999-02-03,3.03, -1.88, 8.54, 2.39, 2.05, 10.01, repro,
1999-02-04,0.75, -2.08, 10.06, 2.17, 1.88, 8.59, repro,
1999-02-05,1.27, -1.28, 1.98, 2.12, 1.85, 8.46, repro,
1999-02-06,1.08, -0.78, 7.47, 2.26, 1.99, 9.21, repro,
1999-02-07,0.78, -1.12, 4.03, 2.18, 1.87, 8.63, repro,
1999-02-08,-0.28, -0.86, 4.66, 2.08, 1.92, 8.32, repro,
1999-02-09,0.78, -1.36, 3.45, 2.34, 1.94, 9.07, repro,
1999-02-10,-0.36, 1.21, 8.10, 2.17, 1.95, 8.71, repro,
1999-02-11,2.83, 0.12, -5.09, 2.25, 1.91, 8.89, repro,
1999-02-12,0.63, 0.98, -5.07, 2.31, 1.94, 9.31, repro,
1999-02-13,0.69, -0.27, -8.55, 2.11, 1.92, 8.31, repro,
1999-02-14,0.73, -0.61, -7.62, 2.18, 1.96, 8.73, repro,
1999-02-15,0.30, -1.36, 2.17, 2.24, 1.97, 8.93, repro,
1999-02-16,-0.28, 0.71, -1.51, 2.17, 2.04, 8.92, repro,
1999-02-17,1.83, -1.34, 7.83, 2.18, 1.84, 8.44, repro,
1999-02-18,-0.77, -0.71, 18.75, 2.11, 1.88, 8.38, repro,
1999-02-19,2.79, -1.24, 4.40, 2.20, 1.97, 8.76, repro,
1999-02-20,1.22, -0.73, 7.10, 2.09, 1.85, 8.18, repro,
1999-02-21,0.76, -0.04, 4.66, 2.05, 1.81, 7.94, repro,
1999-02-22,1.18, -0.49, -0.66, 2.15, 1.91, 8.36, repro,
1999-02-23,0.65, 0.09, 0.43, 2.08, 1.89, 8.02, repro,
1999-02-24,-0.58, -0.11, -2.28, 2.04, 1.87, 7.91, repro,
1999-02-25,-0.48, -0.79, 3.33, 2.05, 1.87, 7.93, repro,
1999-02-26,0.93, -0.24, 3.94, 2.10, 1.90, 8.08, repro,
1999-02-27,0.28, 1.30, 6.95, 2.18, 1.97, 8.44, repro,
1999-02-28,1.68, 1.24, 9.14, 2.06, 1.88, 8.03, repro,
1999-03-01,0.83, 2.63, 5.43, 3.25, 2.71, 12.19, repro,
1999-03-02,-2.14, -0.65, -17.38, 2.46, 1.99, 9.26, repro,
1999-03-03,-0.42, 0.88, -8.07, 2.12, 1.92, 8.12, repro,
1999-03-04,0.16, -0.83, -4.90, 2.28, 1.91, 8.62, repro,
1999-03-05,0.33, 0.25, -5.10, 2.26, 1.96, 8.57, repro,
1999-03-06,-1.53, -0.03, -4.53, 2.22, 2.14, 8.59, repro,
1999-03-07,-1.43, -0.51, -5.33, 2.08, 1.94, 8.16, repro,
1999-03-08,-1.06, -1.60, -4.55, 2.10, 1.89, 8.10, repro,
1999-03-09,-0.03, -1.73, -2.22, 2.02, 1.80, 7.78, repro,
1999-03-10,0.47, 0.01, -0.23, 2.08, 1.93, 8.13, repro,
1999-03-11,0.23, 0.64, 2.02, 2.06, 1.87, 7.99, repro,
1999-03-12,0.47, -0.59, -10.62, 2.09, 1.80, 7.95, repro,
1999-03-13,0.14, 0.51, -5.03, 2.09, 1.93, 8.11, repro,
1999-03-14,0.69, -1.17, -4.16, 2.05, 1.83, 7.86, repro,
1999-03-15,1.11, -1.38, 3.20, 2.15, 1.91, 8.29, repro,
1999-03-16,1.46, -0.46, 4.82, 2.22, 2.00, 8.61, repro,
1999-03-17,1.09, 0.83, -6.59, 2.08, 1.84, 8.01, repro,
1999-03-18,-1.37, -1.13, -9.14, 2.37, 2.14, 9.19, repro,
1999-03-19,0.26, -0.52, -8.52, 2.28, 2.15, 9.09, repro,
1999-03-20,0.56, -3.34, -2.93, 2.21, 2.00, 8.67, repro,
1999-03-21,1.28, -1.15, 5.70, 2.11, 1.99, 8.37, repro,
1999-03-22,0.95, -0.23, -3.03, 2.24, 2.11, 8.91, repro,
1999-03-23,0.31, -1.57, -8.37, 2.14, 1.92, 8.43, repro,
1999-03-24,-0.21, -2.73, -6.05, 2.38, 2.15, 9.57, repro,
1999-03-25,1.54, -2.10, -4.01, 2.41, 2.18, 9.45, repro,
1999-03-26,0.21, -0.98, -1.99, 2.40, 2.06, 9.36, repro,
1999-03-27,2.07, 0.34, -3.14, 2.14, 1.99, 8.41, repro,
1999-03-28,1.20, -2.04, -2.80, 2.32, 2.03, 9.17, repro,
1999-03-29,0.53, -0.66, -8.21, 2.31, 2.11, 9.22, repro,
1999-03-30,0.08, 0.29, -6.01, 2.97, 2.76, 11.71, repro,
1999-03-31,1.10, -0.57, 2.40, 2.28, 2.01, 8.97, repro,
1999-04-01,0.94, 0.73, 4.40, 2.14, 1.97, 8.33, repro,
1999-04-02,0.74, -1.17, -6.44, 2.24, 1.96, 8.54, repro,
1999-04-03,-0.14, -0.09, -6.52, 2.13, 1.88, 8.13, repro,
1999-04-04,-1.21, -0.65, -0.54, 2.11, 1.88, 8.10, repro,
1999-04-05,-0.96, 0.00, -8.00, 2.33, 2.09, 9.04, repro,
1999-04-06,1.02, -0.01, 5.25, 2.10, 1.81, 7.99, repro,
1999-04-07,0.88, -1.51, -2.29, 2.11, 1.93, 8.17, repro,
1999-04-08,0.59, -0.64, -5.56, 2.13, 1.96, 8.34, repro,
1999-04-09,1.14, 0.87, -4.41, 2.10, 1.96, 8.36, repro,
1999-04-10,-1.28, -0.12, -4.48, 2.08, 1.94, 8.03, repro,
1999-04-11,1.26, 0.50, 3.08, 2.01, 1.78, 7.80, repro,
1999-04-12,1.90, 1.34, -3.28, 2.37, 2.05, 9.12, repro,
1999-04-13,0.30, -0.55, -2.93, 2.04, 1.84, 7.94, repro,
1999-04-14,-0.41, -1.23, -5.09, 2.04, 1.83, 7.90, repro,
1999-04-15,0.25, -0.73, -8.88, 2.08, 1.90, 8.28, repro,
1999-04-16,-0.42, -0.46, -3.27, 2.25, 2.26, 9.28, repro,
1999-04-17,0.77, 0.05, 0.35, 2.15, 1.97, 8.55, repro,
1999-04-18,2.25, -0.05, -2.76, 2.03, 1.83, 7.93, repro,
1999-04-19,0.85, -2.60, -1.88, 2.07, 1.86, 8.01, repro,
1999-04-20,1.22, -1.93, 7.11, 2.08, 1.85, 8.21, repro,
1999-04-21,0.24, -2.81, 6.06, 2.19, 1.97, 8.62, repro,
1999-04-22,1.00, -0.84, 6.61, 2.06, 1.79, 8.09, repro,
1999-04-23,0.81, -1.70, 11.64, 2.06, 1.82, 8.04, repro,
1999-04-24,0.90, 0.41, 4.04, 2.09, 1.90, 8.09, repro,
1999-04-25,0.82, -1.60, 4.77, 2.08, 1.88, 8.10, repro,
1999-04-26,1.11, -0.82, 3.17, 2.03, 1.83, 7.91, repro,
1999-04-27,0.24, -1.84, 8.05, 2.07, 1.88, 8.09, repro,
1999-04-28,-0.50, -1.73, 6.56, 2.04, 1.85, 8.05, repro,
1999-04-29,0.38, -0.62, 8.61, 2.33, 2.07, 9.07, repro,
1999-04-30,-0.42, -0.92, 0.78, 2.04, 1.84, 7.96, repro,
1999-05-01,0.65, -1.98, 4.98, 2.07, 1.89, 8.10, repro,
1999-05-02,0.78, -1.17, 9.66, 2.01, 1.84, 7.90, repro,
1999-05-03,0.26, -1.67, 9.91, 2.04, 1.89, 8.15, repro,
1999-05-04,0.90, -0.88, 14.87, 2.07, 1.89, 8.16, repro,
1999-05-05,0.82, -0.90, 13.03, 2.16, 1.97, 8.37, repro,
1999-05-06,1.38, -0.77, 4.07, 2.04, 1.84, 7.99, repro,
1999-05-07,0.69, -1.83, 4.31, 2.02, 1.84, 7.94, repro,
1999-05-08,0.43, -2.44, 8.56, 2.06, 1.89, 8.06, repro,
1999-05-09,1.11, -1.60, 6.60, 2.15, 1.94, 8.46, repro,
1999-05-10,0.88, -0.86, 6.00, 2.07, 1.84, 8.04, repro,
1999-05-11,1.35, -0.21, 4.44, 2.04, 1.85, 8.05, repro,
1999-05-12,0.07, -0.55, -2.49, 2.04, 1.84, 7.99, repro,
1999-05-13,-0.01, -1.27, 10.99, 2.04, 1.85, 8.07, repro,
1999-05-14,0.27, -1.22, 5.70, 2.03, 1.83, 7.93, repro,
1999-05-15,0.08, -1.60, 0.36, 2.05, 1.85, 8.01, repro,
1999-05-16,0.99, 0.32, 2.86, 2.11, 1.89, 8.32, repro,
1999-05-17,0.65, -1.48, 8.77, 2.08, 1.91, 8.22, repro,
1999-05-18,-0.70, -0.78, 6.74, 2.23, 1.93, 8.83, repro,
1999-05-19,-0.39, -1.59, 6.14, 2.06, 1.88, 8.24, repro,
1999-05-20,0.05, -1.65, 3.48, 2.04, 1.85, 8.03, repro,
1999-05-21,1.24, -1.34, 11.17, 2.05, 1.86, 8.13, repro,
1999-05-22,0.84, -0.57, 3.76, 2.03, 1.84, 7.95, repro,
1999-05-23,0.54, -0.19, 12.24, 2.05, 1.86, 8.05, repro,
1999-05-24,0.83, -1.32, 1.91, 2.06, 1.87, 8.11, repro,
1999-05-25,0.71, -0.40, 5.62, 2.03, 1.84, 7.93, repro,
1999-05-26,0.81, -0.28, 4.93, 2.03, 1.86, 7.97, repro,
1999-05-27,2.74, -0.10, 12.02, 2.02, 1.84, 7.92, repro,
1999-05-28,-0.04, -0.78, 8.57, 2.07, 1.86, 8.28, repro,
1999-05-29,0.24, -1.38, 11.04, 2.00, 1.76, 7.83, repro,
1999-05-30,0.84, -0.67, 3.97, 2.05, 1.89, 8.07, repro,
1999-05-31,0.89, -1.76, 1.79, 2.05, 1.84, 7.95, repro,
1999-06-01,1.75, -1.42, 18.46, 2.14, 1.90, 8.50, repro,
1999-06-02,0.68, -0.98, 12.70, 2.06, 1.87, 8.07, repro,
1999-06-03,2.11, -0.54, 15.67, 2.10, 1.86, 8.15, repro,
1999-06-04,1.39, -1.61, 13.03, 2.02, 1.79, 7.89, repro,
1999-06-05,2.17, -1.21, 14.54, 2.06, 1.86, 7.99, repro,
1999-06-06,2.16, -0.39, 7.09, 2.14, 2.00, 8.34, repro,
1999-06-07,2.08, -0.94, 13.97, 2.11, 1.95, 8.22, repro,
1999-06-08,-0.31, -1.12, 12.75, 2.06, 1.91, 8.12, repro,
1999-06-09,0.38, -1.51, 15.38, 2.06, 1.87, 8.00, repro,
1999-06-10,1.49, -1.56, 17.75, 2.07, 1.88, 8.07, repro,
1999-06-11,1.57, -1.28, 7.87, 2.11, 1.89, 8.34, repro,
1999-06-12,1.23, -1.91, 16.20, 2.07, 1.86, 7.99, repro,
1999-06-13,1.82, -0.73, 14.25, 2.03, 1.82, 8.01, repro,
1999-06-14,2.13, -2.17, 6.19, 2.20, 1.84, 8.64, repro,
1999-06-15,1.22, -2.32, 15.76, 2.07, 1.80, 7.98, repro,
1999-06-16,1.34, -2.43, 9.58, 2.04, 1.86, 7.98, repro,
1999-06-17,1.80, -0.40, 12.93, 2.13, 1.96, 8.50, repro,
1999-06-18,1.05, -0.57, 11.38, 2.03, 1.88, 8.09, repro,
1999-06-19,1.72, -2.43, 14.40, 2.08, 1.90, 8.20, repro,
1999-06-20,0.71, -2.01, 20.20, 2.02, 1.84, 7.97, repro,
1999-06-21,0.00, -2.37, 9.86, 2.00, 1.77, 7.79, repro,
1999-06-22,1.20, -1.81, 19.14, 2.22, 1.90, 8.69, repro,
1999-06-23,0.90, -0.97, 20.97, 2.07, 1.87, 8.13, repro,
1999-06-24,-0.01, -2.93, 14.63, 2.10, 1.89, 8.35, repro,
1999-06-25,0.63, -1.57, 17.28, 2.18, 1.96, 8.54, repro,
1999-06-26,0.05, -2.68, 20.43, 2.12, 1.86, 8.29, repro,
1999-06-27,1.32, -3.90, 22.95, 2.17, 1.91, 8.70, repro,
1999-06-28,0.54, -1.88, 12.93, 2.16, 2.01, 8.61, repro,
1999-06-29,-0.13, 0.29, 18.75, 2.38, 2.02, 9.34, repro,
1999-06-30,1.10, -1.26, 10.53, 2.05, 1.81, 8.15, repro,
1999-07-01,0.45, -2.11, 21.19, 2.27, 1.91, 9.04, repro,
1999-07-02,1.87, -2.04, 21.41, 2.14, 1.84, 8.64, repro,
1999-07-03,-0.00, -1.44, 24.39, 2.32, 2.04, 9.47, repro,
1999-07-04,0.01, -0.91, 18.24, 2.12, 1.90, 8.46, repro,
1999-07-05,2.27, -0.88, 20.06, 2.07, 1.83, 8.22, repro,
1999-07-06,0.82, -2.58, 11.49, 2.14, 1.97, 8.60, repro,
1999-07-07,1.17, -1.56, 24.47, 2.32, 1.99, 9.08, repro,
1999-07-08,0.91, 0.60, 20.82, 7.09, 5.60, 24.25, repro,
1999-07-09,1.01, 0.03, 22.02, 2.17, 1.92, 8.49, repro,
1999-07-10,0.96, -0.78, 20.03, 2.13, 1.86, 8.30, repro,
1999-07-11,1.93, -0.53, 5.69, 2.16, 1.89, 8.42, repro,
1999-07-12,0.76, -1.65, 4.40, 2.02, 1.80, 7.95, repro,
1999-07-13,0.53, -1.55, 9.11, 2.23, 1.91, 8.75, repro,
1999-07-14,1.20, -1.43, 14.69, 2.18, 1.99, 8.73, repro,
1999-07-15,1.17, -2.85, 18.88, 2.12, 1.87, 8.45, repro,
1999-07-16,-0.47, -1.99, 26.56, 2.16, 1.91, 8.78, repro,
1999-07-17,1.47, -1.60, 14.43, 2.05, 1.83, 8.17, repro,
1999-07-18,1.02, -1.93, 16.17, 2.23, 1.80, 8.68, repro,
1999-07-19,0.73, -1.86, 15.17, 2.21, 1.87, 8.68, repro,
1999-07-20,0.47, -1.48, 24.57, 2.24, 1.99, 8.95, repro,
1999-07-21,-0.02, -2.16, 13.41, 2.15, 2.04, 8.62, repro,
1999-07-22,1.01, -2.70, 17.04, 2.28, 2.01, 9.11, repro,
1999-07-23,0.85, -1.65, 16.33, 2.28, 2.04, 9.22, repro,
1999-07-24,0.89, -1.33, 17.99, 2.18, 1.88, 8.63, repro,
1999-07-25,0.98, -2.34, 17.71, 2.57, 2.37, 10.23, repro,
1999-07-26,1.21, 0.13, 19.80, 2.27, 1.95, 8.86, repro,
1999-07-27,0.76, -1.46, 23.13, 2.24, 1.96, 8.79, repro,
1999-07-28,1.17, -1.51, 19.86, 1.99, 1.77, 7.73, repro,
1999-07-29,0.48, -2.10, 13.68, 2.06, 1.82, 7.99, repro,
1999-07-30,1.64, -1.10, 31.12, 2.17, 1.92, 8.36, repro,
1999-07-31,0.31, -2.64, 19.09, 2.04, 1.85, 8.11, repro,
1999-08-01,0.69, -2.45, 15.16, 2.04, 1.85, 8.10, repro,
1999-08-02,2.54, 0.15, 7.89, 2.06, 1.83, 8.08, repro,
1999-08-03,0.30, -0.47, 14.72, 2.08, 1.85, 8.05, repro,
1999-08-04,1.73, -0.06, 10.93, 2.17, 1.98, 8.93, repro,
1999-08-05,1.27, -0.57, 14.41, 2.11, 1.86, 8.16, repro,
1999-08-06,1.10, -1.95, 19.76, 2.11, 1.85, 8.16, repro,
1999-08-07,0.80, -0.07, 22.30, 5.00, 4.51, 21.19, repro,
1999-09-01,-0.88, 1.48, -0.19, 13.96, 12.42, 38.58, repro,
1999-09-02,2.20, 0.48, 22.47, 2.19, 1.96, 8.41, repro,
1999-09-03,2.05, -0.28, 19.08, 2.16, 1.89, 8.43, repro,
1999-09-04,1.67, -1.84, 20.75, 2.27, 2.03, 8.74, repro,
1999-09-05,0.33, -1.05, 18.58, 2.05, 1.80, 7.98, repro,
1999-09-06,0.71, -1.77, 21.99, 2.18, 1.88, 8.44, repro,
1999-09-07,3.76, -0.58, 13.78, 2.45, 1.95, 9.82, repro,
1999-09-08,0.61, 0.22, 18.45, 2.31, 1.91, 9.15, repro,
1999-09-09,0.94, -0.44, 9.20, 2.15, 1.84, 8.29, repro,
1999-09-10,1.06, -0.80, 18.06, 2.25, 1.96, 8.46, repro,
1999-09-11,1.80, -1.81, 10.68, 2.29, 1.92, 8.62, repro,
1999-09-12,2.06, -0.21, 16.95, 2.14, 1.83, 8.28, repro,
1999-09-13,3.02, 0.89, 19.15, 2.17, 1.86, 8.42, repro,
1999-09-14,0.33, -0.91, 13.97, 2.13, 1.83, 8.08, repro,
1999-09-15,1.20, -0.69, 17.22, 2.18, 1.84, 8.34, repro,
1999-09-16,-1.34, -0.63, 19.00, 2.15, 1.88, 8.11, repro,
1999-09-17,1.57, -1.54, 15.86, 2.21, 1.88, 8.38, repro,
1999-09-18,2.92, -0.54, 13.93, 2.22, 1.87, 8.39, repro,
1999-09-19,0.85, 0.55, 16.91, 2.10, 1.81, 8.03, repro,
1999-09-20,1.39, -0.30, 13.80, 2.24, 1.96, 8.55, repro,
1999-09-21,0.70, -1.39, 14.93, 2.18, 1.84, 8.36, repro,
1999-09-22,0.81, -0.74, 12.41, 2.22, 1.91, 8.55, repro,
1999-09-23,1.75, -2.14, 11.85, 2.25, 1.97, 8.56, repro,
1999-09-24,0.95, 0.70, 22.04, 2.33, 2.00, 8.84, repro,
1999-09-25,3.27, -0.50, 21.82, 2.16, 1.92, 8.47, repro,
1999-09-26,0.72, -0.19, 22.95, 2.34, 2.11, 9.19, repro,
1999-09-27,1.62, 0.03, 14.24, 2.28, 2.02, 9.10, repro,
1999-09-28,1.97, -0.64, 12.21, 2.39, 2.13, 9.03, repro,
1999-09-29,3.49, 1.13, 13.25, 2.56, 2.34, 9.73, repro,
1999-09-30,2.55, -0.18, 19.97, 2.72, 2.41, 10.22, repro,
1999-10-01,0.05, 0.13, 23.06, 2.64, 2.31, 10.31, repro,
1999-10-02,1.44, -1.46, 14.41, 2.26, 2.04, 8.77, repro,
1999-10-03,3.02, -1.67, 11.17, 2.34, 2.02, 9.04, repro,
1999-10-04,3.21, -0.22, 14.69, 2.13, 1.95, 8.32, repro,
1999-10-05,3.39, -1.46, 20.57, 2.23, 1.98, 8.52, repro,
1999-10-06,1.09, -0.89, 26.42, 2.17, 1.94, 8.39, repro,
1999-10-07,-0.93, -1.58, 16.05, 2.26, 1.88, 8.65, repro,
1999-10-08,1.33, -0.46, 11.76, 2.25, 1.95, 8.51, repro,
1999-10-09,1.92, -0.28, 17.72, 2.19, 1.91, 8.40, repro,
1999-10-10,1.69, 0.05, 19.25, 2.20, 1.91, 8.47, repro,
1999-10-11,2.29, -0.06, 17.50, 2.20, 1.86, 8.45, repro,
1999-10-12,1.38, -0.56, 17.44, 2.22, 1.90, 8.49, repro,
1999-10-13,0.42, -0.72, 15.49, 2.34, 2.03, 8.80, repro,
1999-10-14,1.01, -1.59, 10.88, 2.11, 1.87, 8.26, repro,
1999-10-15,0.95, 0.00, 21.59, 2.19, 1.93, 8.40, repro,
1999-10-16,2.18, -3.04, 20.97, 2.12, 1.86, 8.32, repro,
1999-10-17,7.04, -2.80, 12.81, 2.17, 1.85, 8.40, repro,
1999-10-18,4.82, -3.58, 13.72, 2.32, 1.95, 8.90, repro,
1999-10-19,5.80, -2.70, 16.29, 2.31, 1.91, 8.80, repro,
1999-10-20,5.81, -1.63, 14.66, 2.13, 1.97, 8.44, repro,
1999-10-21,6.81, -3.29, 12.36, 2.20, 2.00, 9.02, repro,
1999-10-22,5.72, -3.61, 14.60, 2.39, 2.30, 9.75, repro,
1999-10-23,7.00, -2.39, 10.03, 2.17, 1.95, 8.43, repro,
1999-10-24,5.40, -1.44, 12.72, 2.28, 2.06, 9.04, repro,
1999-10-25,6.95, -3.36, 12.99, 2.07, 1.84, 8.15, repro,
1999-10-26,6.40, -3.23, 19.89, 2.09, 1.91, 8.38, repro,
1999-10-27,7.10, -2.66, 16.71, 2.22, 1.95, 8.58, repro,
1999-10-28,7.32, -2.95, 18.21, 2.24, 1.98, 8.63, repro,
1999-10-29,6.99, -1.93, 20.85, 2.29, 2.06, 8.84, repro,
1999-10-30,7.16, -1.92, 12.84, 2.17, 1.96, 8.52, repro,
1999-10-31,7.18, -2.99, 16.13, 2.24, 1.92, 8.60, repro,
1999-11-01,7.60, -3.39, 9.10, 2.28, 1.94, 8.86, repro,
1999-11-02,8.00, -2.66, 18.98, 2.21, 1.94, 8.58, repro,
1999-11-03,7.21, -2.52, 15.17, 2.43, 1.99, 9.51, repro,
1999-11-04,6.86, -2.71, 21.61, 2.25, 1.93, 8.69, repro,
1999-11-05,7.04, -2.88, 21.12, 2.21, 1.89, 8.58, repro,
1999-11-06,6.84, -2.57, 16.23, 2.14, 1.84, 8.33, repro,
1999-11-07,6.62, -3.14, 19.72, 2.23, 1.93, 8.62, repro,
1999-11-08,6.76, -1.52, 26.22, 2.39, 2.08, 9.47, repro,
1999-11-09,7.45, -3.62, 24.77, 2.12, 1.89, 8.30, repro,
1999-11-10,6.70, -3.07, 23.52, 2.18, 1.90, 8.53, repro,
1999-11-11,6.85, -3.71, 16.16, 2.08, 1.85, 8.21, repro,
1999-11-12,8.08, -3.40, 19.60, 2.11, 1.88, 8.21, repro,
1999-11-13,8.05, -2.90, 22.83, 2.23, 1.95, 8.68, repro,
1999-11-14,6.58, -2.92, 25.32, 2.16, 1.93, 8.55, repro,
1999-11-15,8.73, -2.07, 16.72, 2.11, 1.81, 8.37, repro,
1999-11-16,8.31, -3.49, 23.18, 2.23, 2.01, 8.66, repro,
1999-11-17,7.62, -3.09, 26.68, 2.11, 1.90, 8.31, repro,
1999-11-18,6.49, -4.14, 24.77, 2.17, 1.90, 8.53, repro,
1999-11-19,6.06, -2.95, 24.76, 2.23, 2.03, 8.63, repro,
1999-11-20,7.54, -2.10, 22.67, 2.21, 2.07, 8.67, repro,
1999-11-21,6.32, -3.15, 23.29, 2.43, 2.15, 9.25, repro,
1999-11-22,6.97, -3.19, 16.97, 2.22, 1.96, 8.61, repro,
1999-11-23,8.78, -3.17, 17.72, 2.57, 2.52, 10.45, repro,
1999-11-24,7.53, -1.94, 12.94, 2.58, 2.48, 10.65, repro,
1999-11-25,8.40, -0.31, 32.18, 2.42, 2.24, 9.57, repro,
1999-11-26,6.99, -3.15, 17.91, 2.28, 2.26, 9.15, repro,
1999-11-27,8.01, -2.87, 21.24, 2.09, 1.95, 8.36, repro,
1999-11-28,7.45, -2.25, 11.57, 2.08, 1.94, 8.31, repro,
1999-11-29,8.84, -2.12, 15.19, 2.18, 2.03, 8.81, repro,
1999-11-30,7.62, -1.08, 11.45, 2.24, 1.98, 8.74, repro,
1999-12-01,6.76, -2.99, 27.36, 2.41, 2.35, 9.69, repro,
1999-12-02,7.69, -2.96, 20.45, 2.02, 1.85, 8.11, repro,
1999-12-03,6.72, -1.92, 17.34, 2.51, 2.47, 10.47, repro,
1999-12-04,10.29, -0.96, 5.17, 3.25, 3.08, 12.23, repro,
1999-12-05,6.37, -2.06, 11.58, 2.22, 2.22, 8.95, repro,
1999-12-06,7.12, -2.35, 12.94, 2.39, 2.15, 9.80, repro,
1999-12-07,7.33, -3.26, 25.58, 2.46, 2.30, 9.98, repro,
1999-12-08,7.24, -1.52, 17.18, 2.79, 2.50, 10.58, repro,
1999-12-09,7.29, -3.50, 19.45, 2.26, 2.21, 9.04, repro,
1999-12-10,7.36, -4.24, 13.19, 2.14, 2.15, 8.74, repro,
1999-12-11,9.63, -2.69, 9.47, 2.17, 2.01, 8.81, repro,
1999-12-12,7.21, -3.68, 14.33, 2.37, 2.33, 9.75, repro,
1999-12-13,7.91, -2.59, 16.06, 2.45, 2.54, 9.93, repro,
1999-12-14,6.76, -3.39, 13.71, 2.43, 2.14, 9.25, repro,
1999-12-15,6.45, -3.82, 9.01, 2.41, 2.21, 9.97, repro,
1999-12-16,7.48, -3.79, 17.37, 2.34, 2.27, 9.70, repro,
1999-12-17,7.23, -1.63, 16.45, 2.24, 2.17, 8.98, repro,
1999-12-18,9.10, -3.86, 15.16, 2.48, 2.25, 9.88, repro,
1999-12-19,7.19, -2.72, 7.74, 2.17, 2.13, 8.92, repro,
1999-12-20,6.65, -1.75, 22.25, 2.27, 2.09, 9.08, repro,
1999-12-21,4.94, -2.58, 16.30, 2.43, 2.01, 9.66, repro,
1999-12-22,6.91, -3.77, 20.93, 2.26, 2.04, 8.98, repro,
1999-12-23,8.43, -1.72, 15.82, 2.41, 2.32, 9.67, repro,
1999-12-24,7.57, -2.43, 6.03, 2.39, 2.36, 9.91, repro,
1999-12-25,7.95, -3.49, 2.18, 2.28, 2.33, 9.62, repro,
1999-12-26,6.34, -2.67, 8.73, 2.26, 2.28, 9.75, repro,
1999-12-27,7.34, -1.98, 2.78, 2.25, 2.07, 9.55, repro,
1999-12-28,8.52, -2.28, 11.48, 2.36, 2.00, 9.60, repro,
1999-12-29,7.54, -2.53, 7.86, 2.18, 2.12, 9.02, repro,
1999-12-30,7.12, -2.43, 11.18, 2.28, 2.12, 9.61, repro,
1999-12-31,6.65, -2.47, 19.03, 2.17, 1.92, 8.83, repro,
2000-01-01,6.66, -2.86, 17.32, 2.26, 1.98, 9.04, repro,
2000-01-02,8.17, -3.12, 11.97, 2.09, 1.98, 8.43, repro,
2000-01-03,8.45, -2.73, 11.70, 2.17, 1.89, 8.70, repro,
2000-01-04,8.08, -3.29, 2.04, 2.27, 2.02, 9.27, repro,
2000-01-05,7.59, -2.97, 14.32, 2.02, 1.82, 8.01, repro,
2000-01-06,8.50, -2.10, 2.59, 2.16, 1.86, 8.64, repro,
2000-01-07,7.82, -2.10, 6.72, 2.13, 1.88, 8.51, repro,
2000-01-08,7.87, -2.13, 11.12, 2.05, 1.88, 8.27, repro,
2000-01-09,8.10, -1.70, 14.22, 2.05, 1.96, 8.27, repro,
2000-01-10,8.28, -3.03, 8.28, 2.06, 1.88, 8.27, repro,
2000-01-11,7.93, -2.06, 7.39, 2.02, 1.82, 8.14, repro,
2000-01-12,8.15, -2.59, 10.88, 2.21, 2.08, 9.36, repro,
2000-01-13,7.69, -2.43, 10.76, 2.25, 1.93, 9.43, repro,
2000-01-14,6.81, -3.13, 6.73, 2.40, 2.24, 10.17, repro,
2000-01-15,7.37, -2.31, 2.41, 2.21, 2.00, 9.21, repro,
2000-01-16,5.74, -3.10, 8.13, 2.03, 1.88, 8.30, repro,
2000-01-17,7.19, -3.86, 8.62, 2.16, 1.93, 8.78, repro,
2000-01-18,8.02, -1.82, 15.19, 2.10, 1.89, 8.46, repro,
2000-01-19,8.15, -3.28, 13.61, 2.13, 1.88, 8.45, repro,
2000-01-20,7.63, -2.43, 14.79, 2.24, 1.94, 9.43, repro,
2000-01-21,8.71, -1.97, 17.53, 2.04, 1.88, 8.20, repro,
2000-01-22,7.32, -3.35, 22.37, 2.24, 1.95, 8.93, repro,
2000-01-23,8.32, -2.03, 17.28, 2.20, 2.05, 9.27, repro,
2000-01-24,7.72, -2.24, 15.38, 2.10, 1.93, 8.43, repro,
2000-01-25,9.26, -3.17, 16.08, 2.11, 1.88, 8.39, repro,
2000-01-26,7.34, -1.66, 17.54, 2.15, 1.83, 8.61, repro,
2000-01-27,10.33, -1.66, 8.79, 2.24, 1.92, 8.93, repro,
2000-01-28,7.35, -2.62, 18.33, 2.11, 1.94, 8.69, repro,
2000-01-29,8.61, -1.80, 10.70, 2.20, 1.96, 9.08, repro,
2000-01-30,9.98, -2.68, 11.03, 2.19, 1.91, 9.05, repro,
2000-01-31,8.15, -2.23, 8.44, 2.18, 1.90, 8.99, repro,
2000-02-01,6.55, -1.33, 7.81, 2.17, 1.87, 8.80, repro,
2000-02-02,7.70, -2.64, 10.83, 2.28, 1.89, 9.33, repro,
2000-02-03,6.53, -3.05, 14.67, 2.34, 1.98, 9.69, repro,
2000-02-04,7.22, -2.91, 16.68, 2.11, 1.84, 8.59, repro,
2000-02-05,8.44, -3.00, 9.81, 2.25, 1.96, 9.06, repro,
2000-02-06,8.59, -2.20, 16.55, 2.04, 1.88, 8.16, repro,
2000-02-07,7.47, -2.00, 10.88, 2.21, 1.92, 8.88, repro,
2000-02-08,8.42, -2.44, 9.87, 2.11, 1.91, 8.74, repro,
2000-02-09,8.30, -2.33, 11.50, 2.08, 1.90, 8.63, repro,
2000-02-10,7.50, -1.94, 10.96, 2.00, 1.80, 7.91, repro,
2000-02-11,9.09, -1.65, 7.53, 1.99, 1.85, 7.92, repro,
2000-02-12,8.56, -1.23, 5.39, 2.03, 1.84, 8.07, repro,
2000-02-13,8.46, -3.92, 15.66, 1.96, 1.74, 7.76, repro,
2000-02-14,8.02, -2.37, 17.32, 1.98, 1.76, 7.92, repro,
2000-02-15,9.49, -2.34, 11.16, 2.01, 1.73, 7.96, repro,
2000-02-16,7.44, -2.97, 8.81, 1.99, 1.75, 7.85, repro,
2000-02-17,7.78, -2.57, 10.55, 2.10, 1.94, 8.27, repro,
2000-02-18,7.79, -2.49, 5.86, 1.98, 1.74, 7.81, repro,
2000-02-19,8.57, -4.15, 6.97, 2.02, 1.79, 7.98, repro,
2000-02-20,8.87, -2.84, 11.59, 2.06, 1.79, 8.10, repro,
2000-02-21,7.61, -2.40, 5.61, 2.04, 1.77, 8.02, repro,
2000-02-22,8.60, -3.28, 10.64, 2.05, 1.74, 8.09, repro,
2000-02-23,8.68, -2.28, 2.79, 2.02, 1.81, 8.14, repro,
2000-02-24,8.49, -3.59, 8.87, 2.06, 1.93, 8.05, repro,
2000-02-25,8.12, -2.55, 7.26, 1.96, 1.71, 7.68, repro,
2000-02-26,8.80, -2.91, 14.26, 2.18, 1.95, 8.47, repro,
2000-02-27,7.73, -3.40, 9.55, 1.97, 1.72, 7.74, repro,
2000-02-28,7.60, -3.64, 10.82, 2.06, 1.77, 8.11, repro,
2000-02-29,8.29, -2.90, 8.12, 2.20, 1.93, 8.82, repro,
2000-03-01,7.87, -3.26, 7.06, 2.46, 2.60, 10.44, repro,
2000-03-02,8.08, -1.36, 9.48, 2.19, 1.99, 8.69, repro,
2000-03-03,9.04, -2.17, 12.06, 2.21, 1.91, 8.94, repro,
2000-03-04,8.27, -2.75, 12.25, 2.16, 1.89, 8.56, repro,
2000-03-05,8.01, -3.54, 12.26, 2.05, 1.82, 8.11, repro,
2000-03-06,7.88, -2.36, 9.75, 2.21, 1.94, 8.95, repro,
2000-03-07,10.26, -1.91, 10.87, 2.29, 2.13, 9.14, repro,
2000-03-08,10.62, -3.47, 4.63, 2.15, 1.86, 8.64, repro,
2000-03-09,7.95, -3.58, 1.92, 2.39, 2.04, 9.56, repro,
2000-03-10,10.48, -1.76, 3.19, 2.42, 2.19, 9.62, repro,
2000-03-11,8.22, -2.59, -3.81, 2.20, 1.97, 8.68, repro,
2000-03-12,8.33, -2.21, 2.62, 2.37, 2.12, 9.43, repro,
2000-03-13,9.71, -4.32, 3.60, 2.62, 2.25, 10.83, repro,
2000-03-14,8.76, -3.77, 13.55, 2.29, 2.11, 9.30, repro,
2000-03-15,10.41, -3.40, 18.16, 2.29, 2.11, 9.42, repro,
2000-03-16,9.66, -3.72, 9.43, 2.23, 2.03, 9.26, repro,
2000-03-17,8.65, -3.58, 2.81, 2.16, 1.93, 8.81, repro,
2000-03-18,8.82, -3.24, 6.37, 2.12, 1.89, 8.28, repro,
2000-03-19,9.79, -1.92, 12.44, 2.30, 2.07, 9.24, repro,
2000-03-20,9.90, -0.33, 8.68, 2.31, 2.05, 9.20, repro,
2000-03-21,5.11, -5.85, -4.80, 2.29, 1.97, 8.97, repro,
2000-03-22,9.22, -3.46, -5.13, 2.14, 1.88, 8.44, repro,
2000-03-23,9.08, -4.14, 6.91, 2.15, 1.87, 8.40, repro,
2000-03-24,9.11, -3.34, 9.07, 2.15, 1.90, 8.47, repro,
2000-03-25,8.94, -2.74, 11.69, 2.07, 1.76, 8.03, repro,
2000-03-26,8.86, -2.87, 8.80, 2.29, 1.93, 8.77, repro,
2000-03-27,9.39, -3.13, 11.03, 2.29, 1.86, 8.94, repro,
2000-03-28,7.63, -2.08, 12.28, 2.12, 1.75, 8.19, repro,
2000-03-29,9.02, -2.92, 14.96, 2.18, 1.84, 8.53, repro,
2000-03-30,8.69, -3.05, 5.54, 2.11, 1.76, 8.22, repro,